User: anonymous   Login
Location: Mount Tamalpais State Park
(37.9108°N, 122.6128°W)
Time: 23:17:31
(UTC-07:00)
Language:

Cosmos 1814 Rocket - Orbit

View from above orbital plane
View from above orbital plane
View from above satellite
View from above satellite

Ground track
Ground track

The orbit data is extracted from the following two-line orbital elements,

1 17304U 87006B   16205.91137134  .00000018  00000-0  14701-4 0  9995
2 17304  74.0605 334.0290 0030663 255.8017 103.9730 14.37574760546121
Epoch (UTC): 23 July 2016 21:52:22
Eccentricity: 0.0030663
inclination: 74.0605°
perigee height: 744 km
apogee height: 788 km
right ascension of ascending node: 334.0290°
argument of perigee: 255.8017°
revolutions per day: 14.37574760
mean anomaly at epoch: 103.9730°
orbit number at epoch: 54612

The dashed part of the orbit path shows where the satellite is in the earth's shadow,  

DLR